Wind_Speed
7 7 7 6 6 6 5 6 7 7 7 8 8 9 9 7 6 6 5 5 4 3 3 2 2 2 3 3 3 4 4 5 5 5 5 5 5 5 5 4 3 3 3 3 2 1 1 1 2
9 8 8 7 7 7 6 6 6 7 8 8 8 8 8 8 7 6 6 6 5 4 3 2 2 2 2 2 3 4 4 4 5 5 5 5 5 5 5 5 4 3 3 2 2 1 1 1 2
9 9 9 8 8 8 7 8 7 7 7 8 8 8 8 7 7 7 7 6 5 4 3 2 1 1 1 2 2 3 4 4 5 5 5 5 5 5 5 5 4 3 3 2 2 2 2 2 2
10 9 9 8 8 8 8 7 8 7 8 8 8 8 8 7 8 7 7 6 5 4 3 2 1 1 0 1 2 3 3 4 4 5 5 5 6 6 5 5 4 3 3 2 2 2 3 3 3
11 10 9 9 9 9 8 7 7 7 8 8 8 9 9 8 8 7 7 7 6 5 3 3 2 1 0 1 2 3 3 4 5 5 5 5 6 6 6 5 4 4 3 3 3 3 3 3 3
12 11 10 10 9 9 8 8 7 7 8 9 9 9 8 8 8 7 7 7 6 5 4 3 3 2 1 0 1 2 3 4 4 5 5 5 6 6 6 5 5 4 4 3 3 3 3 3 3
13 12 11 11 10 10 9 8 8 7 8 9 10 10 9 9 8 7 7 6 6 6 5 4 3 2 1 1 1 2 3 4 5 5 5 5 5 6 6 6 5 5 4 4 3 3 3 3 3
13 12 12 12 11 11 10 9 8 8 8 9 9 10 10 9 8 8 7 7 6 6 5 4 4 2 1 1 1 2 3 4 4 5 5 5 5 5 6 6 5 5 4 4 4 3 3 3 3
14 13 13 13 12 11 11 9 9 9 8 9 9 10 10 9 9 9 8 7 5 6 5 4 4 2 2 1 1 2 3 4 4 5 5 4 4 5 5 6 5 5 4 4 4 3 3 2 3
14 14 14 14 13 12 11 10 10 10 9 9 9 10 10 10 10 9 9 7 6 5 5 5 4 2 2 1 1 2 3 4 4 4 5 4 5 5 5 5 5 5 4 4 4 4 3 2 2
14 14 14 14 14 13 12 11 10 10 11 10 9 10 10 10 10 10 9 8 6 5 5 5 4 3 2 1 1 1 2 4 4 5 5 4 5 5 5 5 5 5 5 4 4 3 3 2 1
14 14 14 15 14 13 13 12 11 10 11 11 10 10 11 11 10 10 9 8 7 6 5 5 4 3 3 2 1 1 2 3 4 5 5 5 4 5 5 5 5 5 4 4 4 3 3 2 1
13 13 14 15 14 13 13 13 11 11 10 10 11 12 12 11 10 10 9 8 7 6 5 5 4 4 3 2 1 1 2 3 4 4 5 5 5 5 5 5 5 5 4 4 4 3 2 2 1
11 13 13 14 14 14 14 13 12 11 10 10 10 12 12 12 11 11 10 9 8 7 6 5 4 3 3 2 1 1 2 2 3 4 4 5 5 6 6 5 5 4 4 3 3 3 2 1 1
10 11 13 14 14 14 14 13 13 12 11 9 9 10 13 13 12 11 10 10 8 8 7 6 5 4 3 2 1 0 1 2 3 3 4 4 5 5 6 5 5 4 4 4 3 3 2 1 1
10 11 12 13 14 14 14 14 13 12 12 10 10 10 12 12 12 11 11 10 9 8 7 7 6 4 3 2 2 1 1 2 3 3 4 4 4 5 5 5 5 4 4 3 3 3 2 2 2
9 10 12 13 14 14 14 14 13 12 12 11 11 11 11 12 12 11 11 10 9 8 8 7 6 5 3 3 2 1 1 2 3 3 4 4 4 5 5 5 5 4 4 4 3 3 3 2 2
9 10 11 12 13 14 14 14 13 12 12 12 12 12 12 12 12 12 11 10 9 9 9 7 6 5 4 3 3 2 1 2 2 3 4 4 4 5 5 5 5 5 4 4 4 3 3 2 2
7 8 10 11 11 12 12 12 12 13 13 13 13 13 12 12 12 12 11 10 10 9 8 7 6 6 5 4 3 2 1 1 2 2 3 3 4 4 5 5 5 5 5 4 4 3 3 3 2
6 7 8 10 10 10 10 11 12 13 13 13 14 13 13 12 12 11 11 10 10 9 8 7 7 6 5 4 4 3 2 2 2 2 2 2 3 4 4 5 5 4 4 4 4 4 3 4 3
5 7 8 7 8 9 9 10 11 12 13 13 14 14 13 13 12 11 12 11 10 9 8 8 7 7 6 5 5 4 3 3 3 2 2 2 2 3 4 4 4 4 4 4 4 4 3 3 3
5 5 6 6 7 8 8 9 10 11 12 12 14 13 13 14 13 12 12 11 11 10 9 8 7 7 6 6 6 5 4 4 3 3 2 2 2 3 3 4 4 4 4 3 3 3 3 2 2
5 5 5 5 6 7 8 8 9 9 9 10 12 12 13 14 13 13 12 11 11 10 9 8 8 7 7 7 6 5 5 4 4 4 3 3 2 3 3 4 4 4 4 3 2 2 2 2 1
4 5 5 5 5 6 7 8 8 9 9 10 11 12 12 13 13 13 12 11 11 11 10 9 9 8 8 7 7 6 6 5 5 4 3 3 3 3 3 4 4 4 4 4 3 2 2 2 1
4 5 5 4 5 5 6 8 8 9 9 9 10 12 11 12 12 12 12 11 11 11 11 10 10 9 9 8 8 7 7 6 6 5 4 4 4 3 3 4 4 4 5 4 4 4 3 3 3
4 5 5 5 4 4 5 6 7 8 8 8 9 10 11 10 11 11 11 12 12 11 11 11 11 10 10 9 9 9 8 8 7 6 6 5 4 4 4 4 4 5 5 5 5 5 4 4 4
4 5 5 5 4 4 5 5 5 6 7 7 8 9 10 10 11 11 11 12 12 12 11 11 11 11 11 11 11 10 10 8 8 7 7 6 6 6 5 5 5 6 7 6 6 6 5 5 4
5 5 5 5 5 4 5 6 6 6 7 8 9 9 10 11 11 11 12 12 12 12 11 11 11 11 12 12 11 10 10 9 9 8 8 7 7 7 7 7 7 7 7 8 7 7 6 6 5
5 5 5 5 6 5 5 6 6 6 6 7 9 10 10 10 11 11 12 11 11 11 11 11 11 11 11 12 11 10 10 10 9 9 9 9 8 8 8 8 8 8 8 8 8 7 7 7 7
6 6 6 6 6 6 5 6 6 6 6 7 7 8 9 10 10 11 12 11 11 11 11 11 11 10 10 10 10 10 10 9 10 9 10 10 10 10 9 9 9 9 9 9 9 9 8 8 8
Wind_Direction
212 207 200 194 193 196 196 193 194 190 189 191 189 188 195 189 186 181 177 169 157 145 133 109 97 71 60 52 38 21 34 34 31 29 28 26 22 14 7 0 355 344 337 329 314 281 288 272 240
218 218 208 203 203 206 208 205 202 200 198 200 198 196 198 198 193 187 179 173 168 164 156 130 100 64 52 40 25 21 29 25 20 22 22 19 17 13 6 5 1 348 339 332 316 277 271 262 236
221 224 219 212 213 212 209 213 211 203 202 201 201 198 192 194 188 182 180 178 173 173 169 157 142 84 57 26 11 10 14 13 13 13 13 11 8 4 3 5 0 352 339 325 306 280 268 264 243
223 226 225 223 219 214 211 210 211 207 201 200 199 197 193 188 184 187 190 185 180 181 185 192 185 185 0 6 5 11 11 13 12 10 9 6 4 0 356 355 350 342 334 323 302 285 275 263 246
225 227 227 224 221 217 216 212 215 214 206 200 198 200 199 191 186 190 193 188 188 190 186 182 168 172 248 327 353 6 15 14 11 7 2 360 360 355 352 351 347 342 337 329 310 291 281 258 253
224 225 227 226 220 215 210 206 207 215 211 207 201 196 196 196 189 193 188 186 189 187 181 184 178 182 188 80 25 21 15 12 9 5 3 358 356 355 351 349 344 339 336 331 318 301 286 263 253
223 223 224 225 223 217 210 207 208 210 212 209 204 201 197 195 193 189 184 186 188 183 180 177 178 181 165 100 46 22 14 10 7 1 357 359 1 2 0 355 348 342 338 336 330 311 290 264 253
223 222 223 224 223 221 218 215 212 214 213 210 204 204 199 196 195 194 192 191 183 187 185 182 182 185 162 131 61 19 13 6 2 358 355 358 4 5 4 0 355 351 348 343 336 320 296 268 255
223 221 221 223 224 223 221 216 213 215 211 209 207 203 201 201 201 197 195 190 190 189 185 187 187 189 163 132 52 8 6 3 1 359 357 0 5 6 6 2 0 1 356 350 341 334 318 283 262
221 221 222 222 223 222 225 222 215 217 214 211 209 204 201 201 198 196 193 191 187 184 185 188 189 185 171 143 67 7 5 4 5 4 0 2 5 5 2 0 2 6 4 359 351 345 338 319 269
223 221 220 220 221 220 223 226 223 220 218 216 217 206 200 201 199 195 194 197 192 186 184 181 178 177 166 139 96 14 8 6 6 6 4 1 3 4 1 359 359 0 0 359 355 352 358 353 319
225 221 218 219 218 219 220 220 222 225 222 222 219 209 204 202 203 199 195 199 192 188 187 182 181 175 162 147 117 33 13 6 1 4 6 6 4 3 360 360 359 2 6 9 8 3 8 11 9
226 225 222 221 219 219 217 215 219 224 223 221 212 206 200 198 200 202 198 196 195 194 190 184 180 174 162 139 106 38 17 6 3 4 5 7 7 4 0 1 1 4 10 14 14 8 14 28 49
227 226 223 220 220 218 215 213 217 217 221 214 209 205 201 200 200 200 196 195 196 198 198 187 179 176 171 156 137 51 21 5 6 6 7 9 8 8 10 11 8 7 11 11 10 8 18 54 79
224 223 221 217 214 214 211 211 216 217 218 216 212 206 203 201 199 198 198 198 199 199 198 193 188 187 183 180 192 203 5 360 2 8 8 7 5 5 7 9 12 14 15 16 22 31 47 77 96
219 219 218 213 209 210 209 208 211 217 217 215 215 209 203 204 205 202 201 201 202 200 198 198 202 206 204 209 221 234 332 348 356 4 7 6 6 7 11 13 15 20 24 27 36 46 64 91 111
213 218 215 212 209 208 208 211 209 212 210 212 213 212 211 211 206 205 204 204 202 200 201 200 205 210 213 221 228 237 298 337 355 3 7 11 15 14 14 18 22 30 33 35 44 52 66 82 103
217 216 213 210 209 207 210 214 214 212 211 214 215 215 213 213 208 208 205 204 202 203 203 204 209 213 216 218 223 232 274 326 346 358 7 18 22 19 21 24 29 35 38 41 46 55 68 79 92
209 207 209 207 207 208 212 217 218 215 216 218 217 216 215 214 207 208 207 207 208 206 206 208 211 213 216 219 226 229 253 302 333 357 6 20 27 28 28 27 31 39 43 45 48 57 68 74 81
194 195 197 202 199 202 207 214 217 216 215 217 215 214 213 207 203 204 205 204 204 204 207 207 212 219 225 229 231 227 245 279 308 332 348 7 21 27 27 26 31 38 43 46 47 52 64 71 77
183 188 185 190 193 201 208 215 216 217 219 221 217 215 211 206 203 204 204 207 207 208 211 213 216 222 231 234 231 230 246 267 285 297 314 331 354 15 23 25 29 31 32 38 40 41 53 63 68
183 187 187 193 197 201 206 210 211 215 219 220 216 213 211 208 205 208 208 211 210 213 214 217 221 229 234 237 234 236 247 254 266 281 290 303 328 348 359 6 11 12 14 18 21 26 33 40 40
183 186 184 193 192 198 204 207 215 217 218 216 212 209 209 206 206 209 210 213 216 218 218 221 228 232 235 242 237 238 246 252 261 271 275 283 303 320 334 345 352 354 357 353 351 358 1 1 7
183 189 199 199 198 201 206 211 215 217 219 218 216 206 201 203 210 213 214 217 221 222 224 229 231 235 239 246 241 240 245 250 255 263 267 277 291 300 313 322 331 335 335 334 334 331 327 325 327
189 193 191 190 193 204 209 216 217 217 217 214 215 209 205 207 213 216 217 219 225 228 231 236 239 240 242 246 243 242 245 249 251 256 262 270 282 291 299 306 314 324 323 317 312 309 299 290 296
212 203 196 195 196 205 215 215 213 211 213 209 207 204 208 212 216 216 221 224 227 231 235 240 243 242 243 245 244 245 246 247 250 257 259 263 269 278 284 294 304 312 316 312 307 297 295 290 291
215 211 208 197 196 210 222 219 215 218 213 212 210 207 211 216 218 222 227 229 230 234 238 240 241 241 243 245 245 248 247 247 250 257 257 260 261 268 277 283 295 302 304 301 295 291 289 285 281
220 215 209 194 192 205 214 212 216 220 217 215 212 213 214 219 223 225 226 230 232 233 239 241 242 243 245 246 246 248 248 248 252 256 260 264 266 268 272 280 291 294 295 294 289 287 283 277 275
222 215 211 207 205 199 205 218 223 221 220 220 219 217 217 220 222 223 226 230 232 234 236 241 244 245 244 245 246 249 251 253 255 258 260 263 266 268 272 278 283 288 292 289 287 283 279 273 271
226 222 211 208 210 209 213 226 226 221 224 221 219 219 219 222 225 226 227 232 238 240 238 244 247 245 247 245 246 247 249 254 258 261 263 264 266 269 272 277 280 283 287 286 282 279 277 275 276
Height
5883 5884 5886 5888 5889 5890 5890 5891 5891 5892 5892 5893 5894 5894 5895 5896 5898 5901 5899 5898 5898 5898 5898 5898 5897 5897 5897 5897 5896 5895 5895 5894 5893 5892 5891 5890 5889 5888 5887 5885 5885 5884 5883 5883 5882 5881 5881 5881 5880
5882 5884 5886 5887 5888 5889 5890 5890 5890 5891 5892 5892 5893 5893 5894 5895 5896 5897 5897 5897 5898 5898 5898 5897 5897 5897 5897 5897 5896 5895 5894 5894 5893 5892 5891 5890 5888 5887 5886 5885 5884 5883 5882 5882 5881 5881 5880 5880 5879
5881 5883 5885 5886 5887 5888 5888 5889 5889 5890 5890 5891 5892 5893 5894 5894 5895 5896 5896 5897 5897 5897 5898 5897 5897 5897 5897 5897 5896 5895 5894 5894 5893 5892 5891 5889 5888 5887 5886 5885 5884 5883 5882 5881 5880 5880 5879 5879 5878
5880 5882 5884 5885 5885 5886 5887 5887 5888 5889 5889 5890 5891 5892 5893 5894 5895 5895 5896 5896 5897 5897 5897 5897 5897 5897 5897 5897 5896 5895 5894 5893 5892 5891 5890 5889 5888 5887 5886 5884 5883 5882 5881 5880 5879 5879 5878 5878 5877
5878 5880 5882 5883 5883 5884 5885 5886 5887 5888 5888 5889 5890 5891 5892 5893 5894 5894 5895 5896 5896 5897 5897 5897 5897 5897 5897 5896 5896 5895 5894 5893 5892 5891 5890 5889 5888 5886 5885 5884 5882 5881 5880 5879 5878 5878 5877 5877 5876
5877 5879 5881 5881 5882 5883 5884 5885 5886 5886 5887 5888 5889 5890 5891 5892 5893 5893 5894 5895 5896 5896 5896 5896 5896 5896 5896 5896 5896 5895 5894 5893 5892 5891 5890 5888 5887 5886 5885 5883 5882 5881 5879 5878 5878 5877 5876 5876 5875
5875 5877 5878 5879 5880 5881 5883 5884 5885 5885 5886 5887 5888 5889 5890 5891 5892 5892 5893 5894 5895 5895 5895 5896 5896 5896 5896 5896 5895 5895 5894 5893 5892 5891 5889 5888 5887 5885 5884 5883 5881 5880 5879 5878 5877 5876 5875 5875 5874
5872 5876 5876 5878 5879 5880 5881 5882 5883 5884 5885 5886 5887 5888 5889 5890 5891 5892 5893 5893 5894 5894 5895 5895 5895 5896 5895 5895 5895 5895 5894 5893 5892 5890 5889 5888 5886 5885 5884 5882 5881 5879 5878 5877 5876 5875 5874 5873 5873
5870 5874 5874 5876 5877 5878 5879 5880 5882 5882 5883 5884 5886 5887 5888 5889 5890 5891 5892 5893 5893 5894 5894 5895 5895 5895 5895 5895 5895 5894 5894 5892 5891 5890 5889 5888 5886 5885 5883 5882 5881 5879 5878 5876 5875 5874 5873 5873 5872
5868 5870 5872 5873 5875 5876 5877 5879 5880 5881 5882 5883 5884 5885 5886 5888 5889 5890 5891 5892 5892 5893 5894 5894 5895 5895 5895 5895 5895 5894 5893 5892 5891 5890 5889 5887 5886 5884 5883 5882 5880 5879 5877 5876 5875 5874 5873 5872 5871
5864 5867 5868 5870 5872 5874 5875 5877 5878 5880 5881 5882 5883 5884 5885 5887 5888 5889 5890 5891 5892 5893 5894 5894 5895 5895 5895 5895 5894 5894 5893 5892 5891 5890 5889 5887 5886 5884 5883 5881 5880 5878 5877 5876 5874 5873 5872 5871 5870
5862 5864 5866 5868 5870 5872 5873 5875 5877 5878 5879 5880 5881 5882 5884 5886 5887 5888 5889 5890 5891 5892 5893 5894 5894 5894 5894 5894 5894 5894 5893 5892 5891 5890 5888 5887 5886 5884 5883 5881 5879 5878 5876 5875 5874 5873 5872 5871 5870
5859 5861 5863 5865 5867 5869 5871 5873 5875 5876 5877 5878 5879 5881 5883 5884 5886 5887 5889 5890 5891 5892 5893 5894 5894 5894 5894 5894 5894 5893 5893 5892 5891 5890 5888 5887 5886 5884 5882 5881 5879 5878 5876 5875 5874 5873 5872 5871 5870
5857 5859 5861 5863 5865 5867 5869 5871 5873 5875 5876 5877 5878 5880 5882 5884 5885 5887 5888 5890 5891 5892 5893 5893 5894 5894 5894 5894 5894 5893 5893 5892 5891 5889 5888 5887 5885 5884 5882 5880 5879 5877 5876 5875 5874 5873 5872 5871 5870
5855 5857 5859 5860 5862 5865 5867 5870 5871 5873 5874 5876 5877 5879 5881 5882 5884 5886 5888 5889 5890 5891 5892 5893 5893 5893 5894 5894 5893 5893 5892 5892 5891 5889 5888 5887 5885 5884 5882 5880 5879 5877 5876 5875 5874 5873 5872 5871 5871
5853 5855 5857 5859 5860 5863 5867 5868 5869 5870 5873 5874 5876 5878 5879 5881 5883 5885 5887 5888 5889 5891 5892 5892 5893 5893 5893 5893 5893 5892 5892 5891 5890 5889 5888 5887 5885 5884 5882 5880 5879 5877 5876 5875 5874 5873 5872 5871 5871
5852 5854 5855 5857 5858 5861 5864 5865 5867 5869 5871 5873 5875 5876 5878 5880 5881 5884 5886 5887 5889 5890 5891 5892 5892 5892 5892 5892 5892 5892 5892 5891 5890 5889 5888 5887 5885 5884 5882 5881 5879 5877 5876 5875 5874 5873 5872 5872 5871
5851 5852 5854 5856 5857 5859 5861 5864 5866 5867 5869 5871 5873 5875 5876 5878 5880 5882 5884 5886 5888 5889 5890 5891 5891 5892 5892 5892 5892 5892 5891 5891 5890 5889 5888 5886 5885 5884 5882 5881 5879 5878 5876 5875 5874 5873 5873 5872 5872
5850 5851 5853 5855 5856 5858 5860 5862 5864 5866 5868 5869 5871 5873 5875 5877 5879 5881 5883 5885 5886 5888 5889 5890 5890 5891 5891 5891 5891 5891 5891 5890 5890 5888 5888 5887 5885 5884 5883 5881 5880 5878 5877 5876 5875 5874 5873 5873 5873
5849 5851 5852 5854 5855 5857 5859 5861 5862 5864 5866 5868 5870 5872 5874 5876 5878 5880 5882 5884 5885 5886 5888 5888 5889 5890 5890 5890 5890 5890 5890 5890 5889 5888 5887 5886 5885 5884 5883 5882 5880 5879 5878 5876 5875 5875 5874 5874 5873
5849 5850 5852 5853 5855 5856 5858 5860 5861 5863 5865 5866 5868 5870 5872 5875 5877 5879 5881 5883 5884 5885 5886 5887 5888 5889 5889 5889 5889 5890 5890 5889 5889 5888 5887 5886 5885 5884 5883 5882 5881 5879 5878 5877 5876 5875 5875 5874 5874
5849 5850 5852 5853 5854 5856 5858 5860 5861 5862 5863 5865 5866 5868 5871 5873 5875 5877 5880 5881 5883 5884 5885 5886 5887 5888 5888 5888 5889 5889 5889 5888 5888 5887 5886 5886 5885 5884 5883 5882 5881 5880 5878 5877 5876 5876 5875 5875 5874
5850 5851 5852 5853 5854 5856 5857 5859 5860 5861 5862 5864 5865 5867 5869 5872 5874 5876 5878 5880 5881 5883 5884 5885 5886 5886 5887 5887 5888 5888 5888 5887 5887 5886 5886 5885 5884 5883 5882 5882 5881 5880 5879 5878 5877 5876 5875 5875 5875
5850 5851 5852 5853 5854 5856 5857 5858 5860 5860 5861 5863 5864 5866 5868 5871 5873 5875 5876 5878 5880 5881 5882 5884 5884 5885 5886 5886 5886 5886 5886 5886 5886 5886 5885 5884 5884 5883 5882 5881 5880 5879 5878 5877 5877 5876 5875 5875 5875
5851 5852 5854 5854 5855 5856 5857 5858 5859 5859 5860 5862 5863 5865 5867 5870 5871 5873 5875 5877 5878 5880 5881 5882 5883 5883 5884 5884 5884 5884 5885 5884 5885 5884 5884 5883 5883 5882 5881 5880 5880 5879 5878 5877 5876 5875 5875 5874 5874
5850 5852 5854 5855 5855 5856 5856 5857 5859 5859 5859 5861 5862 5864 5866 5868 5870 5872 5873 5875 5876 5878 5879 5880 5881 5881 5882 5882 5882 5882 5883 5883 5883 5883 5883 5882 5882 5881 5880 5879 5879 5878 5877 5876 5875 5874 5873 5873 5873
5850 5851 5852 5854 5854 5855 5856 5856 5857 5858 5859 5860 5861 5863 5865 5866 5868 5870 5872 5873 5874 5876 5877 5877 5878 5879 5880 5880 5880 5880 5880 5881 5881 5881 5881 5880 5880 5880 5879 5878 5877 5876 5875 5874 5873 5872 5872 5872 5872
5850 5851 5852 5853 5854 5855 5856 5856 5857 5857 5858 5859 5860 5862 5864 5865 5867 5868 5869 5871 5872 5873 5874 5875 5876 5877 5877 5877 5878 5878 5878 5878 5879 5879 5879 5878 5878 5878 5877 5876 5875 5874 5873 5872 5871 5870 5870 5870 5870
5849 5850 5851 5852 5853 5855 5855 5858 5856 5856 5857 5858 5859 5861 5862 5863 5865 5866 5867 5869 5870 5871 5872 5873 5873 5874 5875 5875 5875 5876 5876 5876 5876 5876 5876 5876 5876 5875 5875 5874 5873 5872 5871 5870 5869 5868 5868 5868 5868
5847 5848 5850 5851 5852 5853 5854 5858 5855 5855 5856 5857 5858 5859 5860 5862 5863 5864 5865 5867 5868 5868 5869 5870 5871 5872 5872 5873 5873 5873 5874 5874 5874 5874 5873 5873 5873 5872 5872 5871 5870 5869 5868 5867 5867 5866 5866 5866 5866